Zurück zum Katalog

VANGUARD R/B

AktivUNKNOWN
NORAD 16·ROCKET BODY·🇺🇸 United States

Gestartet Mar 17, 1958 von Cape Canaveral Space Force Station

Loading…

Nächste Überflüge (nächste 24 Stunden)

TLE

AktuellSource: Space-Track

Epoche: Sep 8, 2026, 17:33 UTC

1 00016U 58002A   26251.73142819  .00000175  00000-0  26878-3 0  9990
2 00016  34.2605  63.5406 2016256 113.3196 269.1702 10.49620373697698

Verfolge VANGUARD R/B in Echtzeit mit AllMySat

Download on the App Store